Location: Agadir Irigdalene
(31.2522°N, 8.7797°W)
Time: 06:22:02
(UTC+00:00)

COSMO-SKYMED 1 - Pass Details

Date: 01 December 2020
Orbit: 621 x 623 km, 97.9° (Epoch: 25 January)

Event Time Altitude Azimuth Distance (km) Brightness Sun altitude
Rises 19:01:11 0° 2° (N) 2,906 5.8 -18.7°
Reaches altitude 10° 19:03:28 10° 355° (N) 1,996 5.1 -19.2°
Maximum altitude 19:07:32 40° 286° (WNW) 919 3.8 -20.0°
Drops below altitude 10° 19:11:34 10° 217° (SW) 1,984 5.8 -20.8°
Sets 19:13:50 0° 210° (SSW) 2,886 6.6 -21.3°
